Weather History for Milan, Italy

Change the Weather History Date:

Sunday, June 23, 2013

  Actual Average Record
Temperature  
Mean Temperature 70 °F -  
Max Temperature 80 °F 82 °F 93 °F (2002)
Min Temperature 59 °F 59 °F 46 °F (1999)
Cooling Degree Days 4    
Growing Degree Days 20 (Base 50)    
Moisture  
Dew Point 60 °F    
Average Humidity 74    
Maximum Humidity 100    
Minimum Humidity 48    
Precipitation  
Precipitation 0.00 in 0.10 in - ()
Sea Level Pressure  
Sea Level Pressure 29.93 in    
Wind  
Wind Speed 4 mph ()    
Max Wind Speed 16 mph    
Max Gust Speed -    
Visibility 6.2 miles    
Events Fog , Rain , Thunderstorm    
Averages and records for this station are not official NWS values.
T = Trace of Precipitation, MM = Missing Value Source: Averaged Metar Reports

Daily Weather History Graph

Daily Weather History Graph

Search for Another Location

Airport:

Trip Planner

Search our weather history database for the weather conditions in past years. The results will help you decide how hot, cold, wet, or windy it might be!

Date:

Astronomy

Jun. 23, 2013 Rise Set
Actual Time 5:36 AM CEST 9:18 PM CEST
Civil Twilight 4:58 AM CEST 9:56 PM CEST
Nautical Twilight 4:06 AM CEST 10:47 PM CEST
Astronomical Twilight 2:56 AM CEST 11:57 PM CEST
Moon 9:11 PM CEST (6/23) 5:38 AM CEST (6/23)
Length of Visible Light 16h 58m
Length of Day
15h 42m
Full, 100% of the Moon is Illuminated
Jun 23
Full
Jun 23
Full
Jun 30
Last Quarter
Jul 8
New
Jul 16
First Quarter

Hourly Weather History & Observations

Time (CEST) Temp. Heat Index Dew Point Humidity Pressure Visibility Wind Dir Wind Speed Gust Speed Precip Events Conditions
12:20 AM 64.4 °F - 59.0 °F 83% 30.01 in - Variable 2.3 mph - N/A   Clear
12:50 AM 64.4 °F - 60.8 °F 88% 30.01 in - South 3.5 mph - N/A   Clear
1:20 AM 64.4 °F - 60.8 °F 88% 30.01 in - South 3.5 mph - N/A   Clear
1:50 AM 64.4 °F - 60.8 °F 88% 30.01 in - SSE 2.3 mph - N/A   Clear
2:20 AM 62.6 °F - 60.8 °F 94% 29.98 in - SSE 2.3 mph - N/A   Clear
2:50 AM 60.8 °F - 60.8 °F 100% 29.98 in - Calm Calm - N/A   Clear
3:20 AM 60.8 °F - 60.8 °F 100% 29.98 in - Calm Calm - N/A   Clear
3:50 AM 59.0 °F - 59.0 °F 100% 29.98 in - Calm Calm - N/A   Clear
4:20 AM 59.0 °F - 59.0 °F 100% 29.98 in - Variable 1.2 mph - N/A   Clear
4:50 AM 60.8 °F - 60.8 °F 100% 29.98 in - Calm Calm - N/A   Clear
5:20 AM 59.0 °F - 59.0 °F 100% 29.98 in - North 2.3 mph - N/A   Clear
5:50 AM 59.0 °F - 59.0 °F 100% 29.95 in 6.2 mi ESE 1.2 mph - N/A Fog Shallow Fog
6:20 AM 59.0 °F - 59.0 °F 100% 29.95 in 6.2 mi Calm Calm - N/A Fog Shallow Fog
6:50 AM 60.8 °F - 60.8 °F 100% 29.95 in 6.2 mi North 2.3 mph - N/A Fog Shallow Fog
7:20 AM 64.4 °F - 62.6 °F 94% 29.95 in 6.2 mi Variable 1.2 mph - N/A Fog Shallow Fog
7:50 AM 68.0 °F - 62.6 °F 83% 29.95 in - Variable 2.3 mph - N/A   Clear
8:20 AM 68.0 °F - 62.6 °F 83% 29.95 in - North 4.6 mph - N/A   Clear
8:50 AM 71.6 °F - 62.6 °F 73% 29.95 in - Variable 1.2 mph - N/A   Clear
9:20 AM 73.4 °F - 60.8 °F 65% 29.95 in - Variable 1.2 mph - N/A   Clear
9:50 AM 73.4 °F - 60.8 °F 65% 29.95 in - Variable 2.3 mph - N/A   Clear
10:20 AM 73.4 °F - 60.8 °F 65% 29.95 in - Variable 5.8 mph - N/A   Clear
10:50 AM 75.2 °F - 60.8 °F 61% 29.95 in - South 5.8 mph - N/A   Clear
11:20 AM 75.2 °F - 60.8 °F 61% 29.95 in - Variable 3.5 mph - N/A   Clear
11:50 AM 75.2 °F - 59.0 °F 57% 29.95 in 6.2 mi SE 6.9 mph - N/A   Partly Cloudy
12:20 PM 77.0 °F - 62.6 °F 61% 29.95 in 6.2 mi South 6.9 mph - N/A   Partly Cloudy
12:50 PM 77.0 °F - 62.6 °F 61% 29.95 in 6.2 mi SSW 8.1 mph - N/A   Scattered Clouds
1:20 PM 78.8 °F - 62.6 °F 57% 29.92 in 6.2 mi South 8.1 mph - N/A   Scattered Clouds
1:50 PM 78.8 °F - 60.8 °F 54% 29.92 in 6.2 mi South 8.1 mph - N/A   Partly Cloudy
2:20 PM 78.8 °F - 60.8 °F 54% 29.92 in 6.2 mi SSW 9.2 mph - N/A   Partly Cloudy
2:50 PM 80.6 °F 81.5 °F 60.8 °F 51% 29.89 in 6.2 mi South 9.2 mph - N/A   Scattered Clouds
3:20 PM 80.6 °F 81.5 °F 60.8 °F 51% 29.89 in 6.2 mi South 10.4 mph - N/A   Scattered Clouds
3:50 PM 78.8 °F - 60.8 °F 54% 29.89 in 6.2 mi South 9.2 mph - N/A   Scattered Clouds
4:20 PM 80.6 °F 81.1 °F 59.0 °F 48% 29.89 in 6.2 mi South 10.4 mph - N/A   Scattered Clouds
4:50 PM 80.6 °F 81.1 °F 59.0 °F 48% 29.86 in 6.2 mi South 9.2 mph - N/A   Scattered Clouds
5:20 PM 77.0 °F - 59.0 °F 54% 29.86 in 6.2 mi SSW 10.4 mph - N/A   Mostly Cloudy
5:50 PM 77.0 °F - 59.0 °F 54% 29.86 in 6.2 mi South 8.1 mph - N/A   Mostly Cloudy
6:20 PM 75.2 °F - 59.0 °F 57% 29.86 in 6.2 mi South 6.9 mph - N/A Rain Light Rain
6:50 PM 75.2 °F - 59.0 °F 57% 29.86 in 6.2 mi SSW 8.1 mph - N/A   Mostly Cloudy
7:20 PM 75.2 °F - 60.8 °F 61% 29.86 in 6.2 mi WSW 9.2 mph - N/A   Scattered Clouds
7:50 PM 71.6 °F - 60.8 °F 69% 29.86 in 6.2 mi North 6.9 mph - N/A   Scattered Clouds
8:20 PM 71.6 °F - 60.8 °F 69% 29.86 in 6.2 mi North 5.8 mph - N/A   Mostly Cloudy
8:50 PM 71.6 °F - 60.8 °F 69% 29.86 in 6.2 mi Variable 1.2 mph - N/A   Mostly Cloudy
9:20 PM 69.8 °F - 62.6 °F 78% 29.86 in 6.2 mi Variable 2.3 mph - N/A   Mostly Cloudy
9:50 PM 68.0 °F - 62.6 °F 83% 29.86 in 6.2 mi SSE 5.8 mph - N/A   Overcast
10:20 PM 68.0 °F - 60.8 °F 78% 29.86 in 6.2 mi SSW 5.8 mph - N/A Thunderstorm Overcast
10:50 PM 66.2 °F - 51.8 °F 60% 29.89 in 6.2 mi NNE 13.8 mph - N/A Thunderstorm Overcast
11:20 PM 60.8 °F - 59.0 °F 94% 29.89 in 6.2 mi North 16.1 mph - N/A Rain , Thunderstorm Heavy Thunderstorms and Rain
11:50 PM 62.6 °F - 57.2 °F 82% 29.86 in 6.2 mi NNE 16.1 mph - N/A Rain Light Rain